Date,TemperatureHighF,TemperatureAvgF,TemperatureLowF,DewpointHighF,DewpointAvgF,DewpointLowF,HumidityHigh,HumidityAvg,HumidityLow,PressureMaxIn,PressureMinIn,WindSpeedMaxMPH,WindSpeedAvgMPH,GustSpeedMaxMPH,PrecipitationSumIn
2013-1-1,50,38,33,33,28,25,79,68,49,31.04,30.91,21,5,24,0.00
2013-1-2,54,41,37,30,23,18,57,48,36,30.91,30.75,23,5,23,0.00
2013-1-3,49,38,32,30,20,15,76,49,35,30.75,30.66,31,10,31,0.00
2013-1-4,55,45,37,43,37,30,83,75,60,30.88,30.72,52,17,52,0.00
2013-1-5,46,43,41,35,32,27,79,64,56,30.78,30.68,31,12,32,0.00
2013-1-6,44,42,40,37,35,34,81,76,71,30.75,30.56,35,20,44,0.00
2013-1-7,48,45,41,43,39,35,84,80,76,30.73,30.35,53,13,63,0.00
2013-1-8,50,46,40,46,40,35,88,82,77,30.73,30.30,0,0,0,0.00
2013-1-9,48,41,37,44,36,32,87,82,76,30.52,30.26,0,0,0,0.00
2013-1-10,39,37,34,33,30,24,82,77,66,30.68,30.51,0,0,0,0.00
2013-1-11,46,35,30,28,23,19,71,62,47,30.87,30.66,0,0,0,0.00
2013-1-12,44,34,30,30,23,20,76,65,49,30.97,30.85,0,0,0,0.00
2013-1-13,46,34,30,28,22,20,72,62,48,31.04,30.97,0,0,0,0.00
2013-1-14,39,36,33,28,26,21,72,65,61,31.11,31.01,0,0,0,0.00
2013-1-15,50,40,36,35,29,26,75,65,53,31.25,31.11,0,0,0,0.00
2013-1-16,51,40,35,34,29,26,72,65,51,31.21,31.06,0,0,0,0.00
2013-1-17,53,39,34,37,31,27,79,71,54,31.07,30.85,0,0,0,0.00
2013-1-18,45,38,33,35,31,28,82,75,64,30.89,30.81,0,0,0,0.00
2013-1-19,42,36,33,34,30,28,85,81,69,30.93,30.88,0,0,0,0.00
2013-1-20,52,38,32,39,32,28,86,79,60,30.94,30.82,0,0,0,0.00
2013-1-21,45,37,32,36,31,27,85,80,67,30.83,30.70,0,0,0,0.00
2013-1-22,51,42,35,48,25,21,100,52,33,30.70,30.49,0,0,0,0.00
2013-1-23,49,44,41,47,32,22,100,64,39,30.70,30.42,0,0,0,0.00
2013-1-24,47,43,40,41,35,32,100,73,58,30.78,30.63,0,0,0,0.00
2013-1-25,55,46,42,43,39,34,85,77,61,30.65,30.51,0,0,0,0.00
2013-1-26,44,42,39,37,35,33,83,77,72,30.61,30.45,0,0,0,0.00
2013-1-27,41,40,39,35,34,32,83,80,77,30.63,30.55,0,0,0,0.00
2013-1-28,41,40,39,37,35,33,85,82,79,30.67,30.57,0,0,0,0.00
2013-1-29,47,44,41,42,40,36,100,83,81,30.91,30.66,0,0,0,0.00
2013-1-30,48,46,43,44,42,39,88,87,85,30.96,30.87,0,0,0,0.00
2013-1-31,49,47,45,43,42,40,88,83,77,30.97,30.87,0,0,0,0.00
2013-2-1,55,47,42,47,41,37,86,79,69,30.99,30.91,0,0,0,0.00
2013-2-2,48,42,39,39,36,34,87,81,71,30.95,30.82,0,0,0,0.00
2013-2-3,49,44,39,40,38,35,86,81,72,30.88,30.78,0,0,0,0.00
2013-2-4,54,46,42,42,38,37,84,75,61,30.79,30.49,0,0,0,0.00
2013-2-5,53,45,42,41,38,36,83,75,63,30.50,30.42,0,0,0,0.00
2013-2-6,51,45,41,39,36,33,82,73,56,30.63,30.37,0,0,0,0.00
2013-2-7,57,45,39,39,34,31,76,66,47,30.76,30.39,0,0,0,0.00
2013-2-8,48,42,38,37,34,32,83,72,64,30.88,30.75,0,0,0,0.00
2013-2-9,47,43,40,37,35,33,78,73,62,30.90,30.83,0,0,0,0.00
2013-2-10,55,44,38,39,34,31,79,69,49,30.95,30.88,0,0,0,0.00
2013-2-11,49,44,41,39,36,33,79,72,62,30.94,30.90,0,0,0,0.00
2013-2-12,48,46,44,42,40,38,85,81,76,30.98,30.83,0,0,0,0.00
2013-2-13,48,46,44,45,39,37,100,76,68,31.07,30.86,0,0,0,0.00
2013-2-14,49,46,42,42,39,36,82,79,73,31.13,31.05,0,0,0,0.00
2013-2-15,62,50,42,47,41,37,85,70,53,31.12,30.77,0,0,0,0.00
2013-2-16,56,46,42,42,38,33,81,72,54,30.77,30.70,0,0,0,0.00
2013-2-17,49,42,40,39,33,31,76,69,58,30.81,30.69,0,0,0,0.00
2013-2-18,49,43,40,35,33,30,78,68,58,30.69,30.35,0,0,0,0.00
2013-2-19,57,45,39,38,33,30,74,63,46,30.59,30.32,0,0,0,0.00
2013-2-20,45,42,39,35,33,32,79,73,66,30.62,30.57,0,0,0,0.00
2013-2-21,44,41,39,36,35,33,82,77,72,30.64,30.58,0,0,0,0.00
2013-2-22,46,41,36,39,34,29,82,78,68,30.62,30.24,0,0,0,0.00
2013-2-23,53,43,38,37,33,30,78,68,52,30.94,30.47,0,0,0,0.00
2013-2-24,46,43,40,34,32,30,75,65,57,30.94,30.52,0,0,0,0.00
2013-2-25,54,43,38,35,32,28,78,66,40,30.86,30.43,0,0,0,0.00
2013-2-26,48,43,38,35,31,29,76,63,50,30.91,30.76,0,0,0,0.00
2013-2-27,50,44,39,39,36,31,80,73,60,30.89,30.77,0,0,0,0.00
2013-2-28,51,47,42,47,42,36,86,82,76,30.92,30.76,0,0,0,0.00
2013-3-1,59,52,50,49,46,45,87,80,69,30.95,30.86,0,0,0,0.00
2013-3-2,58,50,38,46,41,32,82,73,62,30.87,30.66,0,0,0,0.00
2013-3-3,58,44,35,40,32,28,83,65,40,30.88,30.77,0,0,0,0.00
2013-3-4,61,47,38,36,26,20,61,46,32,30.87,30.53,0,0,0,0.00
2013-3-5,54,47,43,37,29,20,72,51,37,30.53,30.33,0,0,0,0.00
2013-3-6,45,42,40,38,34,29,84,74,57,30.47,30.17,0,0,0,0.00
2013-3-7,55,45,40,41,37,35,85,74,53,30.68,30.47,0,0,0,0.00
2013-3-8,61,46,39,43,36,31,83,68,49,30.81,30.65,0,0,0,0.00
2013-3-9,62,49,40,41,34,32,75,58,40,31.07,30.81,0,0,0,0.00
2013-3-10,50,44,42,38,36,33,77,71,63,31.06,31.00,0,0,0,0.00
2013-3-11,55,48,43,43,39,36,79,72,56,31.02,30.75,0,0,0,0.00
2013-3-12,55,50,47,47,44,41,85,80,70,30.76,30.66,0,0,0,0.00
2013-3-13,51,50,48,47,45,43,86,84,81,30.79,30.68,0,0,0,0.00
2013-3-14,53,50,47,46,43,40,85,77,69,30.74,30.63,0,0,0,0.00
2013-3-15,64,52,47,55,45,41,87,79,61,30.81,30.72,0,0,0,0.00
2013-3-16,53,46,38,43,38,30,82,73,59,30.73,30.46,0,0,0,0.00
2013-3-17,54,42,38,35,32,29,78,67,45,30.77,30.54,0,0,0,0.00
2013-3-18,59,44,38,41,33,28,81,66,41,30.82,30.66,0,0,0,0.00
2013-3-19,58,44,39,36,30,24,77,60,37,30.81,30.19,0,0,0,0.00
2013-3-20,53,47,38,44,38,28,82,71,61,30.59,29.98,0,0,0,0.00
2013-3-21,52,41,37,36,31,28,78,69,51,30.78,30.59,0,0,0,0.00
2013-3-22,56,41,34,37,29,23,79,64,38,30.94,30.77,0,0,0,0.00
2013-3-23,58,44,35,33,26,22,71,50,30,30.97,30.87,0,0,0,0.00
2013-3-24,62,47,38,34,26,22,65,46,29,30.88,30.72,0,0,0,0.00
2013-3-25,67,53,43,34,27,21,44,37,27,30.72,30.55,0,0,0,0.00
2013-3-26,65,54,48,37,32,28,58,45,32,30.63,30.56,0,0,0,0.00
2013-3-27,62,52,47,42,37,29,68,57,43,30.60,30.54,0,0,0,0.00
2013-3-28,68,55,46,49,42,39,80,63,44,30.76,30.59,0,0,0,0.00
2013-3-29,69,57,37,47,42,30,77,59,38,30.86,30.76,0,0,0,0.00
2013-3-30,69,56,46,69,39,-100,100,58,36,30.85,30.70,0,0,0,0.00
2013-3-31,74,60,49,46,39,32,64,48,31,30.69,30.55,0,0,0,0.00
2013-4-1,66,54,49,53,44,38,82,68,45,30.75,30.59,0,0,0,0.00
2013-4-2,58,52,48,45,42,40,79,69,61,30.81,30.74,0,0,0,0.00
2013-4-3,68,56,47,48,42,39,79,61,40,30.79,30.57,0,0,0,0.00
2013-4-4,56,54,52,50,45,40,82,71,59,30.58,30.26,0,0,0,0.00
2013-4-5,57,51,47,48,42,-100,85,76,69,30.49,30.32,0,0,0,0.00
2013-4-6,53,47,44,43,40,36,80,75,65,30.52,30.28,0,0,0,0.00
2013-4-7,56,43,37,45,37,33,86,79,65,30.47,30.10,0,0,0,0.00
2013-4-8,62,48,42,45,40,36,84,73,51,30.86,30.47,0,0,0,0.00
2013-4-9,57,49,44,42,38,37,78,66,53,30.94,30.78,0,0,0,0.00
2013-4-10,64,52,46,50,41,36,82,66,51,30.84,30.51,0,0,0,0.00
2013-4-11,57,48,44,42,37,33,81,67,50,30.89,30.78,0,0,0,0.00
2013-4-12,48,43,41,38,35,31,84,72,61,30.79,30.24,0,0,0,0.00
2013-4-13,51,42,37,40,34,30,81,73,62,30.59,30.33,0,0,0,0.00
2013-4-14,63,47,39,40,34,28,81,64,35,30.60,30.53,0,0,0,0.00
2013-4-15,61,47,40,39,35,31,79,64,41,30.76,30.53,0,0,0,0.00
2013-4-16,63,49,40,41,35,29,77,61,37,30.99,30.76,0,0,0,0.00
2013-4-17,67,51,42,40,34,30,65,54,34,31.04,30.97,0,0,0,0.00
2013-4-18,52,47,43,43,38,33,83,72,61,31.03,30.78,0,0,0,0.00
2013-4-19,56,50,47,50,45,42,86,83,75,30.79,30.66,0,0,0,0.00
2013-4-20,58,49,45,45,42,39,85,76,58,30.88,30.78,0,0,0,0.00
2013-4-21,56,47,43,42,38,32,80,70,51,30.94,30.81,0,0,0,0.00
2013-4-22,64,51,40,43,33,21,82,54,26,31.12,30.94,0,0,0,0.00
2013-4-23,69,54,43,37,30,20,57,40,24,31.01,30.86,0,0,0,0.00
2013-4-24,74,60,48,43,35,27,61,41,24,30.91,30.68,0,0,0,0.00
2013-4-25,77,64,52,41,34,26,47,33,23,30.77,30.65,0,0,0,0.00
2013-4-26,71,59,48,47,43,39,78,57,41,30.88,30.76,0,0,0,0.00
2013-4-27,58,53,50,44,40,34,78,61,47,30.82,30.75,0,0,0,0.00
2013-4-28,62,52,47,48,41,35,79,67,47,30.81,30.56,0,0,0,0.00
2013-4-29,65,48,42,42,37,32,83,67,37,30.74,30.50,0,0,0,0.00
2013-4-30,63,47,38,42,32,26,74,57,35,31.02,30.74,0,0,0,0.00
2013-5-1,68,53,39,40,32,26,72,47,27,31.17,31.02,0,0,0,0.00
2013-5-2,73,57,49,43,36,29,54,44,30,31.15,30.97,0,0,0,0.00
2013-5-3,72,59,48,48,40,34,68,52,37,30.99,30.85,0,0,0,0.00
2013-5-4,75,64,53,48,41,35,63,44,25,30.86,30.64,0,0,0,0.00
2013-5-5,83,71,60,46,40,36,44,33,22,30.64,30.45,0,0,0,0.00
2013-5-6,88,75,63,52,44,36,43,33,24,30.51,30.43,0,0,0,0.00
2013-5-7,78,61,51,52,47,43,80,61,40,30.62,30.47,0,0,0,0.00
2013-5-8,70,58,51,49,47,44,80,66,45,30.77,30.63,0,0,0,0.00
2013-5-9,76,62,49,51,48,44,83,62,39,30.83,30.76,0,0,0,0.00
2013-5-10,83,67,55,53,45,-100,76,51,27,30.84,30.77,0,0,0,0.00
2013-5-11,85,67,55,63,45,-100,100,48,30,30.81,30.65,0,0,0,0.00
2013-5-12,84,63,57,55,51,49,78,66,31,30.74,30.65,0,0,0,0.00
2013-5-13,66,56,48,54,47,37,84,71,54,30.79,30.56,0,0,0,0.00
2013-5-14,71,56,46,44,40,35,76,57,31,30.83,30.74,0,0,0,0.00
2013-5-15,74,56,50,47,42,36,79,60,34,30.74,30.63,0,0,0,0.00
2013-5-16,77,59,52,52,31,-100,81,61,35,30.64,30.52,0,0,0,0.00
2013-5-17,67,57,52,48,42,-100,82,64,47,30.67,30.57,0,0,0,0.00
2013-5-18,66,57,50,46,43,40,78,61,43,30.89,30.67,0,0,0,0.00
2013-5-19,73,59,52,71,45,41,100,61,42,31.02,30.88,0,0,0,0.00
2013-5-20,74,58,49,49,44,40,80,62,36,30.96,30.53,0,0,0,0.00
2013-5-21,62,50,45,46,42,38,82,71,53,30.53,30.40,0,0,0,0.00
2013-5-22,62,49,44,47,41,39,84,76,55,30.55,30.45,0,0,0,0.00
2013-5-23,64,51,45,44,41,38,79,68,49,30.62,30.54,0,0,0,0.00
2013-5-24,68,56,47,47,42,39,77,62,41,30.68,30.58,0,0,0,0.00
2013-5-25,71,57,50,46,43,42,75,62,37,30.66,30.59,0,0,0,0.00
2013-5-26,69,57,51,52,46,42,79,67,50,30.62,30.56,0,0,0,0.00
2013-5-27,58,55,51,51,47,44,79,74,68,30.59,30.35,0,0,0,0.00
2013-5-28,67,57,50,49,46,43,82,69,53,30.51,30.40,0,0,0,0.00
2013-5-29,65,55,49,49,45,42,81,67,54,30.59,30.31,0,0,0,0.00
2013-5-30,65,55,47,47,44,40,79,66,49,30.84,30.58,0,0,0,0.00
2013-5-31,76,60,50,48,43,38,76,57,29,30.96,30.84,0,0,0,0.00
2013-6-1,79,60,54,47,42,40,64,52,31,30.86,30.68,0,0,0,0.00
2013-6-2,78,62,51,50,45,41,77,56,34,30.73,30.67,0,0,0,0.00
2013-6-3,78,63,53,51,47,45,76,58,39,30.75,30.70,0,0,0,0.00
2013-6-4,83,67,54,56,48,41,75,52,32,30.77,30.68,0,0,0,0.00
2013-6-5,82,69,58,56,49,39,58,48,35,30.74,30.68,0,0,0,0.00
2013-6-6,85,69,56,52,47,37,70,48,29,30.70,30.66,0,0,0,0.00
2013-6-7,70,63,57,52,45,37,64,53,39,30.77,30.67,0,0,0,0.00
2013-6-8,76,62,53,49,46,43,69,55,36,30.80,30.73,0,0,0,0.00
2013-6-9,73,59,52,50,44,40,73,59,39,30.75,30.65,0,0,0,0.00
2013-6-10,76,62,50,49,44,40,72,53,34,30.66,30.53,0,0,0,0.00
2013-6-11,70,59,51,52,43,40,71,58,42,30.72,30.57,0,0,0,0.00
2013-6-12,72,57,51,52,44,40,73,62,38,30.77,30.71,0,0,0,0.00
2013-6-13,76,59,52,50,45,43,74,62,37,30.84,30.75,0,0,0,0.00
2013-6-14,74,59,53,49,45,42,73,60,38,30.85,30.68,0,0,0,0.00
2013-6-15,79,62,53,52,46,43,75,58,33,30.68,30.58,0,0,0,0.00
2013-6-16,78,65,57,53,48,45,72,55,41,30.73,30.64,0,0,0,0.00
2013-6-17,81,66,57,52,48,43,78,55,30,30.73,30.56,0,0,0,0.00
2013-6-18,75,65,56,53,46,41,78,54,31,30.62,30.53,0,0,0,0.00
2013-6-19,70,60,54,50,47,45,75,62,45,30.64,30.54,0,0,0,0.00
2013-6-20,61,56,53,50,47,44,81,71,63,30.70,30.58,0,0,0,0.00
2013-6-21,74,74,74,47,47,47,39,39,39,30.80,30.80,0,0,0,0.00
2013-6-22,81,74,56,51,49,47,74,43,32,30.72,30.51,0,0,0,0.00
2013-6-23,74,67,62,57,53,48,78,61,53,30.51,30.26,0,0,0,0.00
2013-6-24,72,62,56,61,52,48,89,71,47,30.35,30.23,0,0,0,0.00
2013-6-25,77,61,56,55,51,48,79,71,40,30.50,30.32,0,0,0,0.00
2013-6-26,73,64,58,56,52,49,77,67,52,30.73,30.49,0,0,0,0.00
2013-6-27,72,66,61,62,56,50,88,70,62,30.85,30.68,0,0,0,0.00
2013-6-28,90,74,63,63,58,54,87,60,33,30.84,30.73,0,0,0,0.00
2013-6-29,89,71,66,59,56,54,71,60,35,30.75,30.67,0,0,0,0.00
2013-6-30,95,75,66,61,56,51,69,53,28,30.67,30.54,0,0,0,0.00
2013-7-1,91,76,67,63,57,54,72,53,37,30.67,30.58,0,0,0,0.00
2013-7-2,82,69,63,56,53,47,76,58,35,30.76,30.68,0,0,0,0.00
2013-7-3,76,65,60,51,46,43,64,52,34,30.79,30.70,0,0,0,0.00
2013-7-4,76,63,57,51,48,46,71,60,40,30.76,30.66,0,0,0,0.00
2013-7-5,76,64,56,53,50,48,76,62,42,30.67,30.61,0,0,0,0.00
2013-7-6,80,64,58,54,51,49,78,64,34,30.62,30.54,0,0,0,0.00
2013-7-7,79,66,60,56,52,48,71,61,44,30.60,30.54,0,0,0,0.00
2013-7-8,83,64,55,56,50,-100,82,65,37,30.74,30.59,0,0,0,0.00
2013-7-9,84,70,62,56,50,-100,70,53,35,30.75,30.66,0,0,3,0.00
2013-7-10,74,62,59,54,46,-100,70,60,49,30.71,30.60,0,0,0,0.00
2013-7-11,70,59,53,48,45,43,71,61,46,30.72,30.62,0,0,0,0.00
2013-7-12,69,60,53,49,45,42,72,59,45,30.74,30.64,0,0,0,0.00
2013-7-13,79,64,54,48,45,42,67,52,31,30.83,30.74,0,0,0,0.00
2013-7-14,76,63,57,50,44,39,62,51,32,30.77,30.65,0,0,0,0.00
2013-7-15,81,66,58,54,45,-100,70,50,32,30.69,30.56,0,0,0,0.00
2013-7-16,86,72,65,58,47,40,60,41,32,30.56,30.48,0,0,0,0.00
2013-7-17,75,67,59,56,52,45,78,59,37,30.83,30.55,0,0,0,0.00
2013-7-18,79,62,58,54,51,49,78,69,42,30.86,30.77,0,0,0,0.00
2013-7-19,81,65,57,57,52,49,78,65,44,30.80,30.70,0,0,0,0.00
2013-7-20,79,62,55,56,50,-100,83,68,44,30.72,30.62,0,0,0,0.00
2013-7-21,80,65,56,57,53,50,83,68,44,30.62,30.57,0,0,0,0.00
2013-7-22,83,65,56,57,53,51,86,69,40,30.71,30.58,0,0,0,0.00
2013-7-23,86,69,61,55,52,49,76,56,30,30.69,30.65,0,0,0,0.00
2013-7-24,86,70,63,54,48,44,65,48,30,30.71,30.66,0,0,0,0.00
2013-7-25,86,72,61,53,47,42,51,42,29,30.76,30.68,0,0,0,0.00
2013-7-26,86,66,60,54,47,43,66,51,30,30.80,30.72,0,0,0,0.00
2013-7-27,82,63,56,50,47,43,72,57,32,30.79,30.65,0,0,0,0.00
2013-7-28,72,61,53,53,49,46,81,65,49,30.66,30.60,0,0,0,0.00
2013-7-29,79,61,55,53,50,47,80,67,40,30.65,30.60,0,0,0,0.00
2013-7-30,80,67,55,55,52,48,80,61,40,30.77,30.66,0,0,0,0.00
2013-7-31,73,64,56,57,54,50,84,70,54,30.75,30.65,0,0,0,0.00
2013-8-1,70,60,55,55,52,50,86,74,58,30.70,30.66,0,0,0,0.00
2013-8-2,60,58,56,55,53,50,85,81,76,30.76,30.68,0,0,0,0.00
2013-8-3,78,65,59,58,55,51,86,70,46,30.76,30.70,0,0,0,0.00
2013-8-4,82,65,60,57,53,51,77,66,41,30.71,30.61,0,0,0,0.00
2013-8-5,88,71,63,59,54,49,72,57,35,30.67,30.60,0,0,0,0.00
2013-8-6,88,67,61,53,48,44,62,51,29,30.66,30.59,0,0,0,0.00
2013-8-7,88,71,62,56,50,45,67,49,30,30.66,30.60,0,0,0,0.00
2013-8-8,85,66,58,57,52,48,79,62,37,30.67,30.60,0,0,0,0.00
2013-8-9,86,72,64,57,52,46,64,49,36,30.61,30.52,0,0,0,0.00
2013-8-10,81,66,60,59,55,52,78,67,47,30.66,30.55,0,0,0,0.00
2013-8-11,80,64,57,59,52,50,100,66,38,30.70,30.65,0,0,0,0.00
2013-8-21,78,63,57,52,46,43,66,55,41,30.73,30.60,0,0,0,0.00
2013-8-22,83,74,65,55,49,46,64,43,33,30.60,30.48,0,0,0,0.00
2013-8-23,77,67,60,57,53,49,80,61,45,30.54,30.49,0,0,0,0.00
2013-8-24,78,63,60,56,48,-100,77,63,37,30.56,30.52,0,0,0,0.00
2013-8-25,75,64,58,53,50,49,76,62,42,30.58,30.53,0,0,0,0.00
2013-8-26,78,65,61,59,52,49,72,63,43,30.60,30.52,0,0,0,0.00
2013-8-27,69,64,61,59,54,52,78,72,63,30.60,30.56,0,0,0,0.00
2013-10-2,56,50,48,46,44,42,84,78,68,30.76,30.66,0,0,0,0.00
2013-10-3,61,53,49,47,44,39,82,72,53,31.04,30.78,0,0,0,0.00
2013-10-4,68,54,46,42,40,37,80,62,34,31.05,30.97,0,0,0,0.00
2013-10-5,67,56,52,44,42,39,65,58,43,30.97,30.76,0,0,0,0.00
2013-10-6,74,62,56,45,44,41,67,53,34,30.75,30.52,0,0,0,0.00
2013-10-7,61,54,52,53,47,43,85,78,64,30.62,30.50,0,0,0,0.00
2013-10-8,58,52,48,49,43,39,79,72,57,30.68,30.58,0,0,0,0.00
2013-10-9,62,50,45,44,40,37,82,69,49,30.73,30.57,0,0,0,0.00
2013-10-10,61,53,48,46,43,39,79,71,53,30.68,30.55,0,0,0,0.00
2013-10-18,53,51,49,45,44,43,83,77,70,30.85,30.76,0,0,0,0.00
2013-10-19,53,48,46,45,40,-100,86,78,74,30.79,30.74,0,0,0,0.00
2013-10-20,51,48,46,45,43,41,87,83,78,30.80,30.74,0,0,0,0.00
2013-10-21,55,49,46,48,44,42,88,84,75,30.77,30.70,0,0,0,0.00
2013-10-22,52,47,46,47,44,43,89,88,82,30.72,30.70,0,0,0,0.00
2013-10-23,52,50,49,45,44,43,83,80,75,30.64,30.63,0,0,0,0.00
2013-10-24,53,50,47,46,44,42,85,80,74,30.70,30.63,0,0,0,0.00
2013-10-25,55,50,47,49,45,43,87,82,76,30.91,30.79,0,0,0,0.00
2013-10-26,57,49,48,47,41,-100,83,76,68,30.93,30.80,0,0,0,0.00
2013-10-27,55,50,45,45,42,40,86,75,65,30.80,30.51,0,0,0,0.00
2013-10-28,58,51,48,42,33,-100,75,53,42,30.55,30.50,0,0,0,0.00
2013-10-29,61,49,42,37,32,28,61,52,40,30.63,30.55,0,0,0,0.00
2013-10-30,57,50,45,46,38,33,69,63,57,30.73,30.63,0,0,0,0.00
2013-11-13,56,52,49,49,46,43,87,80,72,31.02,30.91,0,0,0,0.00
2013-11-14,52,48,46,47,43,41,85,83,79,30.90,30.66,0,0,0,0.00
2013-11-15,47,45,43,43,40,37,88,82,76,30.66,29.93,0,0,0,0.00
2013-11-16,50,43,41,41,33,-100,83,69,61,30.35,29.98,0,0,0,0.00
2013-11-17,51,45,42,44,40,35,85,80,73,30.50,30.37,0,0,0,0.00
2013-11-18,50,48,46,47,44,41,88,86,81,30.50,30.14,0,0,0,0.00
2013-11-19,51,44,37,48,36,21,88,74,50,30.62,30.14,0,0,0,0.00
2013-11-20,46,37,34,27,25,21,68,61,44,31.04,30.63,0,0,0,0.00